Theta_e
315 316 316 317 318 319 317 316 314 313 313 313 313 313 313 311 313 314 314 316 313 312 314 312 313 314 314 320 323 324 334 340 340 345 348 347 347 347 345 343 341 340 336 332 332 334 334 335 336 336 337 337 338 338 337 337 336 336 336 336 336 336 336 335 334 334 334 333 334 335 335 335 336 336 336 336 336 337 337 337 336 336 336 336 335 335
315 317 319 319 319 319 320 320 315 312 313 312 312 312 312 313 313 313 314 316 313 312 315 313 313 312 315 326 327 326 336 342 341 345 346 347 348 346 344 341 339 337 334 331 333 334 334 335 335 336 336 336 336 336 336 336 335 335 335 335 336 334 334 335 335 336 334 333 335 335 335 335 336 336 336 336 336 336 336 337 336 336 336 335 335 335
315 319 320 318 316 315 317 319 316 315 315 314 314 314 314 315 314 315 319 320 314 313 316 313 310 313 320 326 323 321 327 331 335 340 339 341 343 341 340 339 338 337 334 333 333 334 334 334 335 335 335 335 335 334 334 335 335 335 335 335 335 334 334 336 334 335 336 335 335 335 335 336 337 337 337 336 336 336 336 336 336 335 335 335 335 334
318 320 317 314 313 313 314 315 317 315 314 317 316 313 316 315 312 315 322 324 317 315 319 317 320 328 325 321 320 320 322 326 329 335 337 335 337 339 340 340 341 341 337 333 333 334 334 334 334 335 335 334 334 335 334 335 335 334 334 335 335 335 335 336 335 335 336 336 336 336 335 336 337 337 337 337 336 337 336 335 335 335 335 335 335 334
317 317 314 313 312 314 315 314 316 314 315 323 321 314 315 315 313 314 319 324 323 321 322 324 330 331 323 322 325 323 327 332 330 334 338 333 332 338 343 342 341 343 340 335 333 333 334 335 335 335 335 334 333 334 333 333 333 334 334 335 335 335 335 335 335 334 335 336 335 336 336 337 336 336 337 337 336 336 336 334 334 335 335 335 335 334
316 314 313 313 312 312 313 313 317 316 317 323 323 318 315 315 318 317 320 326 327 321 317 320 321 318 322 331 332 326 330 334 332 332 335 331 329 334 340 342 341 341 339 335 333 334 335 336 336 335 335 334 333 333 332 332 332 333 334 334 334 334 334 333 333 333 335 335 336 335 336 337 336 336 336 336 335 335 334 334 334 334 335 335 335 335
316 315 314 314 314 312 312 312 314 316 316 316 321 322 316 318 322 319 320 322 321 318 316 320 318 316 327 336 334 332 334 334 333 332 332 332 332 332 333 336 338 338 335 335 336 335 335 335 336 335 334 333 332 331 331 330 331 332 333 334 334 334 333 333 333 333 333 334 335 335 335 336 336 336 336 335 335 334 333 333 334 334 334 335 335 335
317 316 315 315 314 312 312 312 312 314 316 317 326 326 320 320 322 321 321 319 318 319 321 328 325 322 331 337 335 335 336 334 333 333 332 332 333 333 333 333 334 334 334 336 336 335 334 334 335 334 333 332 331 331 331 330 331 331 332 332 332 333 334 333 333 333 333 334 335 335 335 336 336 336 335 335 335 335 334 334 334 334 333 334 334 334
318 317 317 315 313 312 313 313 313 313 314 320 326 323 320 319 318 322 323 322 324 318 317 327 327 323 327 333 337 337 337 337 334 333 333 333 333 333 334 334 333 332 332 334 335 335 333 333 333 332 331 331 331 331 331 332 332 332 332 333 332 333 334 333 334 334 333 334 334 335 335 336 336 336 335 334 334 334 335 334 334 334 333 333 334 334
315 317 317 314 313 314 313 312 313 312 313 318 319 316 319 321 321 326 324 323 327 318 316 325 326 329 332 333 339 340 338 337 334 333 332 332 333 333 333 334 333 332 331 331 331 331 330 329 329 329 329 330 330 330 331 333 333 333 333 334 333 333 333 334 334 333 333 333 334 335 335 336 336 335 335 334 334 334 334 334 334 333 333 333 333 333
315 315 316 314 314 315 313 312 311 312 313 315 316 315 318 324 328 336 335 326 321 319 324 328 325 334 341 337 337 339 337 335 333 333 332 331 331 332 332 332 331 331 330 330 329 329 328 328 328 328 328 328 329 329 330 331 332 332 332 333 333 333 333 333 333 333 333 333 334 335 335 335 335 335 335 334 334 333 334 334 333 333 333 333 333 333
314 313 315 315 317 314 312 313 311 311 313 315 319 316 315 322 325 330 334 325 318 322 327 327 324 331 339 337 335 335 333 330 331 333 332 332 331 330 331 331 330 330 329 328 329 329 329 328 328 328 327 328 329 329 329 330 330 332 332 332 333 333 333 333 333 333 334 334 335 335 335 335 335 335 335 334 333 333 333 334 333 333 333 333 332 332
318 315 315 314 316 315 313 314 311 311 313 314 320 320 318 319 318 320 327 324 322 324 319 320 329 335 336 334 333 333 331 329 329 330 330 331 331 330 329 329 329 328 327 327 328 328 329 328 328 327 326 328 328 328 328 329 329 330 332 332 333 333 333 333 333 332 332 334 335 335 335 334 333 333 334 334 334 333 333 334 334 333 333 333 332 332
318 318 315 312 313 314 314 315 314 313 314 314 318 321 320 321 318 318 321 320 320 320 315 317 329 337 336 333 331 331 332 329 328 328 329 329 329 328 327 327 328 328 327 327 327 327 328 328 327 326 325 326 326 327 327 328 328 329 330 330 331 332 333 333 333 333 332 333 334 335 334 334 333 330 331 333 333 333 334 333 333 332 332 332 332 332
318 319 319 314 313 315 315 315 317 317 315 314 317 317 318 325 326 321 322 323 319 318 321 323 326 332 335 334 329 329 331 330 329 328 328 328 327 327 326 326 326 326 326 325 325 325 326 327 327 325 325 325 325 326 326 327 327 328 329 329 329 331 332 332 332 332 333 333 334 334 334 335 333 330 329 331 333 333 333 333 332 332 332 332 332 332
315 320 323 317 313 314 315 314 316 317 315 313 314 315 315 322 328 324 324 326 325 327 329 329 329 329 331 331 326 328 332 331 331 329 328 327 326 325 325 323 323 322 322 322 321 322 323 325 325 326 326 325 326 326 326 326 326 328 329 329 331 332 332 332 332 332 333 333 334 334 335 334 334 332 329 331 334 334 333 332 331 331 332 332 332 332
314 319 323 317 314 315 315 316 316 314 317 317 313 315 315 316 322 322 318 319 325 328 323 325 334 332 330 331 327 328 333 332 331 330 328 327 325 323 323 321 321 320 320 319 319 319 320 321 322 323 324 324 325 326 326 326 327 327 328 329 331 332 332 332 332 332 332 333 334 334 334 335 334 333 332 332 334 333 332 332 331 331 332 332 331 332
318 319 322 317 313 315 314 315 316 313 318 320 314 315 314 311 317 323 323 324 325 321 318 324 335 333 330 332 329 329 333 332 330 329 327 326 325 323 322 320 319 318 318 318 317 317 317 318 318 319 320 321 322 323 325 326 326 327 327 328 329 330 331 331 331 331 331 332 334 334 334 334 334 334 334 333 333 333 332 332 331 331 331 332 331 331
318 318 324 320 313 314 316 316 316 314 314 316 315 316 315 315 320 319 319 323 320 318 323 328 329 329 331 332 331 332 334 332 330 328 327 326 324 322 320 319 318 317 317 316 315 315 316 315 316 316 318 318 319 320 321 322 323 324 325 326 327 327 328 329 330 330 329 330 333 333 333 333 333 333 333 333 333 333 332 331 330 331 331 332 331 331
321 319 322 322 315 314 318 319 320 318 314 313 314 313 315 324 326 318 317 321 318 321 328 330 329 330 333 332 331 333 332 331 330 328 326 324 321 320 318 317 317 316 315 315 314 313 314 314 314 314 315 316 317 317 318 318 319 320 321 323 325 326 326 327 329 329 328 329 331 332 332 332 332 333 334 333 332 332 332 330 330 330 331 331 330 331
316 316 321 328 321 315 318 319 320 321 315 313 314 313 313 318 319 316 318 318 319 326 329 330 333 332 331 331 332 332 329 328 328 326 324 322 319 317 316 315 315 314 313 313 313 312 312 313 313 313 313 314 314 315 315 315 316 316 318 320 322 324 325 326 327 327 328 329 330 331 332 333 333 334 333 333 332 332 332 330 330 331 331 331 330 330
314 318 326 331 322 318 322 321 317 318 317 316 321 321 317 316 317 320 318 317 324 330 327 329 334 331 329 329 329 329 328 327 325 324 322 319 317 315 314 313 312 311 311 311 311 311 311 312 312 312 312 312 313 313 313 313 314 314 315 317 319 321 323 325 325 326 328 330 330 329 331 333 334 333 333 331 331 332 331 330 330 331 331 330 330 330
327 326 322 320 318 318 322 320 317 320 322 324 327 327 324 320 323 328 326 324 326 326 325 329 332 329 327 327 326 324 322 321 321 321 319 317 315 313 312 311 310 309 309 309 309 310 310 310 311 311 311 311 311 312 312 312 312 313 313 315 318 320 322 324 325 326 327 329 330 330 330 331 332 332 333 331 331 331 331 330 330 330 330 330 329 329
328 325 317 316 318 320 321 320 321 323 327 332 331 326 327 326 325 328 333 335 330 326 331 337 332 329 327 324 322 320 317 317 316 316 316 315 313 312 311 310 309 308 308 308 308 308 308 308 309 310 310 310 310 310 310 311 311 311 312 313 316 319 321 322 324 325 326 327 329 330 329 329 330 332 333 331 331 331 330 330 330 329 329 330 329 329
319 322 323 320 318 320 320 320 323 326 329 333 329 324 326 327 325 323 327 334 330 323 329 336 331 328 327 322 319 317 315 315 313 312 312 312 311 310 310 309 308 308 307 307 307 306 306 306 306 307 308 309 309 309 309 309 309 310 310 311 312 315 319 321 323 324 325 326 328 329 329 328 328 330 331 329 330 330 329 329 330 329 329 330 329 329
325 323 328 329 323 323 325 326 327 329 329 329 326 322 325 327 326 322 324 334 332 323 326 333 330 327 325 320 317 316 314 314 313 311 310 309 309 309 308 308 307 307 306 306 305 305 305 305 305 305 306 307 307 307 307 308 308 308 308 309 309 311 315 318 321 323 324 325 326 328 330 329 327 328 329 328 328 329 328 328 328 328 329 329 329 329
331 323 324 330 329 327 331 330 327 327 330 329 324 322 323 323 323 326 330 333 331 326 328 330 327 326 323 319 317 315 313 313 311 310 309 308 308 307 307 307 306 306 305 305 304 304 304 304 304 304 305 305 305 306 306 306 307 307 307 307 308 309 311 314 318 321 323 324 325 326 327 328 327 328 329 329 328 327 328 328 328 327 328 329 329 329
334 326 321 322 323 323 323 322 320 322 324 323 321 320 320 320 324 331 332 326 324 328 330 327 325 325 322 318 316 314 311 310 309 308 307 307 307 306 306 306 305 305 304 304 303 304 303 303 304 304 304 304 304 304 305 305 306 306 306 306 307 308 310 312 315 319 321 322 324 325 325 326 327 327 328 328 327 327 328 329 328 327 326 327 328 329
333 327 321 320 319 319 319 319 318 318 318 318 318 319 319 320 325 328 325 321 324 331 332 327 324 322 318 316 314 312 310 309 307 306 306 305 306 305 305 305 304 304 303 303 303 303 303 303 303 303 303 303 303 303 304 304 305 305 305 305 306 307 308 310 312 316 319 321 322 325 325 325 326 326 327 327 327 327 328 328 327 326 326 325 325 327
330 325 320 320 320 318 317 318 317 317 317 317 317 317 318 319 320 321 321 320 324 327 327 323 319 316 314 313 311 309 308 307 306 305 304 304 304 304 304 304 303 303 302 302 302 302 302 302 302 302 302 302 302 303 303 303 303 304 304 305 305 306 307 308 310 312 315 317 320 323 325 325 326 326 326 326 326 327 327 326 326 326 326 325 323 325
327 324 321 323 323 319 317 316 316 317 317 317 316 316 316 317 318 318 319 319 320 321 319 317 316 313 310 309 308 307 307 306 305 305 304 303 303 303 303 303 303 302 301 301 301 301 301 301 301 301 301 301 302 302 302 302 303 303 304 304 305 306 306 308 309 309 311 314 317 320 323 325 326 326 325 325 326 327 326 325 326 325 326 326 323 323
330 324 321 324 326 321 317 316 317 318 318 318 317 316 316 317 317 317 316 317 318 318 317 317 317 313 309 307 306 305 305 305 304 304 303 303 302 302 302 302 302 302 301 300 300 300 300 300 301 300 301 301 301 301 301 302 302 303 303 304 305 305 307 307 308 308 310 312 314 318 321 324 325 326 326 325 325 326 325 325 325 324 325 326 323 322
329 325 322 324 326 322 318 319 320 322 325 323 317 315 316 316 315 315 314 315 315 315 317 318 315 311 307 306 305 304 304 304 304 303 303 302 302 301 301 301 301 301 300 300 300 300 300 300 300 300 300 300 300 300 301 301 302 302 303 303 304 305 306 307 307 307 309 310 312 315 318 322 324 326 326 325 324 326 325 324 324 323 324 324 321 320
323 323 325 326 325 322 319 320 321 323 325 320 314 313 315 314 313 314 313 312 311 313 313 312 310 308 306 305 305 304 304 303 302 302 301 301 301 301 300 300 300 300 299 299 299 299 300 300 300 300 300 300 300 300 301 301 302 302 303 303 304 305 305 306 306 306 307 308 310 313 315 318 321 323 324 324 324 324 324 323 322 321 322 321 318 318
321 323 325 324 323 321 319 320 324 325 320 315 312 312 312 311 311 311 311 310 309 309 309 308 308 306 305 304 303 303 302 302 301 300 300 300 300 301 300 300 299 299 299 299 299 299 299 299 299 299 299 300 300 300 301 301 302 302 302 303 303 304 304 305 305 306 306 307 308 310 313 315 317 320 322 323 323 323 322 322 320 319 319 318 315 316
321 323 322 320 320 320 321 321 323 320 314 312 313 312 312 312 312 312 312 311 309 308 308 308 306 304 303 302 301 301 301 300 300 300 300 300 300 300 300 300 300 299 299 299 299 299 298 298 298 299 299 299 299 300 300 301 301 302 302 302 303 303 303 304 304 305 306 306 307 308 310 312 313 315 317 318 320 320 319 318 317 315 315 313 312 313
320 321 322 321 319 318 319 318 317 316 314 313 313 312 312 312 312 313 313 311 310 309 307 305 304 303 302 301 301 300 301 301 301 300 299 300 300 300 299 299 299 299 299 299 298 298 298 298 298 298 299 299 299 300 300 300 301 301 301 302 302 302 303 303 303 304 305 306 306 306 308 310 311 311 312 312 314 314 314 313 312 311 311 310 309 309
320 322 323 322 319 316 316 315 315 316 317 314 312 311 310 311 311 312 312 311 310 308 306 305 304 303 302 301 301 300 303 306 305 301 299 299 299 299 299 299 299 299 298 298 298 298 298 298 298 298 299 299 300 300 300 300 301 301 301 301 301 301 302 302 302 303 304 306 306 306 307 308 309 309 309 308 308 308 309 309 308 308 308 308 307 307
318 320 322 321 318 317 317 317 317 317 315 313 311 310 310 310 312 312 313 313 310 308 307 305 304 304 303 302 302 302 306 309 306 301 299 299 299 299 299 299 299 299 298 298 298 298 298 298 299 299 299 300 299 300 300 300 300 300 300 300 300 301 301 302 301 302 303 305 307 307 306 307 308 308 308 307 306 306 306 306 306 306 306 306 305 305
319 320 322 321 318 317 318 317 315 314 312 310 309 309 309 310 311 314 317 315 310 309 309 307 305 305 304 303 304 304 306 308 304 300 299 299 299 299 299 298 299 298 298 298 298 298 299 299 299 299 299 299 299 299 300 300 300 300 300 300 300 300 300 301 301 302 303 305 307 307 307 307 307 307 307 307 306 305 304 305 305 305 306 305 303 303
319 318 318 319 317 316 315 314 312 312 310 309 309 308 309 310 313 316 317 313 308 307 308 306 306 306 305 305 305 303 302 302 301 299 299 299 298 299 298 298 298 298 298 299 299 299 299 299 299 299 300 300 300 300 299 299 299 300 299 300 299 299 299 301 302 302 303 304 306 307 306 306 306 306 307 307 307 306 305 304 304 304 304 304 302 302
317 316 315 316 315 313 312 312 312 312 309 307 308 307 308 312 315 314 311 307 305 305 304 303 304 303 303 303 302 301 300 299 299 299 299 299 299 299 298 298 298 299 299 299 299 300 300 300 300 300 300 300 300 300 300 299 299 299 299 299 299 299 299 300 302 302 302 303 304 305 306 306 306 306 306 306 308 308 307 307 305 304 304 304 305 304
313 314 314 314 313 313 313 313 314 314 308 305 308 309 309 312 312 309 306 305 304 303 302 301 301 300 300 300 299 299 299 299 299 299 299 299 298 298 298 298 298 299 299 299 299 300 299 299 300 300 300 300 300 300 300 299 299 299 300 299 300 300 299 299 300 300 300 301 302 303 305 305 306 306 306 305 306 307 307 307 307 305 304 304 304 303
310 312 313 311 310 313 315 313 312 310 306 305 308 310 309 309 307 305 304 304 303 302 301 300 300 299 299 299 298 298 298 298 298 299 298 298 298 298 298 298 298 298 299 299 299 299 299 299 299 299 300 300 300 300 300 299 299 299 300 300 300 300 300 299 298 298 298 298 299 301 303 304 305 306 306 305 305 305 305 305 305 304 304 303 303 302
309 309 310 308 307 309 311 309 306 306 306 306 307 307 306 306 305 304 304 303 302 301 300 300 299 299 298 298 298 298 298 298 298 298 298 298 298 297 297 298 298 298 298 298 299 298 299 299 299 299 299 299 300 300 300 300 299 299 299 300 300 300 300 300 299 298 297 297 298 299 300 302 303 304 305 305 305 305 304 303 303 303 303 302 302 301
307 306 307 307 306 306 306 305 304 306 306 306 305 305 305 304 304 303 303 302 301 301 300 299 299 298 298 298 297 297 297 298 298 298 298 298 298 298 298 298 298 298 298 299 299 298 299 299 299 299 299 299 299 299 299 299 299 299 299 299 300 300 300 300 300 299 298 297 297 298 299 300 300 301 303 303 304 304 305 304 303 302 302 302 302 302
308 307 307 307 306 306 306 305 304 305 305 305 304 304 303 303 303 302 302 301 300 300 299 299 298 298 298 298 298 298 298 298 298 298 298 298 298 298 299 298 298 299 299 299 298 298 298 299 299 299 299 299 299 299 299 299 299 299 299 299 299 300 300 300 300 299 299 298 297 297 297 298 298 299 300 301 302 303 303 303 303 303 303 303 303 303
307 306 306 306 305 306 306 305 304 304 304 304 304 303 302 302 302 301 300 300 300 299 299 299 298 298 298 298 298 298 299 298 298 299 299 299 299 299 299 299 299 299 299 299 299 299 299 299 299 299 299 299 299 299 299 299 299 299 299 299 299 300 299 300 300 300 299 299 298 297 297 296 297 298 298 299 300 301 301 301 302 303 302 302 303 303
307 307 305 305 305 305 305 304 304 304 303 303 303 302 301 301 300 300 300 299 300 300 300 300 299 298 299 298 297 298 300 300 298 299 299 299 299 299 299 299 299 299 299 299 299 299 299 299 299 299 299 299 299 299 299 299 299 299 299 299 299 299 299 299 299 299 300 300 300 299 297 296 296 296 297 297 298 298 298 299 300 301 302 301 302 303
306 305 304 304 305 305 304 304 304 305 304 303 302 301 301 300 300 300 300 300 300 301 301 301 300 298 298 299 298 298 300 300 299 299 299 299 299 300 299 299 299 299 299 299 299 299 299 299 299 299 299 299 299 299 299 299 299 299 299 299 299 299 299 299 299 299 300 299 300 300 299 298 296 295 295 295 295 296 297 297 297 298 300 300 301 301
306 305 304 305 306 305 304 303 303 304 303 302 301 301 300 300 300 300 301 301 301 300 299 300 301 300 298 298 299 298 298 298 299 299 299 299 299 300 300 300 299 300 300 300 300 300 300 299 299 299 299 299 299 299 299 299 299 299 298 299 299 299 299 299 299 299 299 299 299 299 300 299 298 297 295 295 295 295 295 296 296 296 296 297 298 298
Wind_Speed
4 4 2 5 6 5 6 7 7 5 5 4 2 1 1 2 5 5 4 7 3 4 8 7 8 9 6 6 4 3 3 6 8 4 5 6 6 5 6 6 6 5 2 7 13 14 15 18 22 24 24 25 25 24 26 28 29 30 30 29 28 27 28 26 20 19 22 24 25 24 21 21 21 21 22 23 24 25 23 22 20 22 23 23 23 22
3 5 5 7 8 8 7 7 6 4 4 2 1 1 3 2 5 6 4 7 1 5 6 2 5 6 4 6 6 5 4 5 8 6 5 6 7 6 5 4 2 3 3 6 9 10 14 17 20 22 22 23 21 20 24 25 25 24 24 24 21 16 19 23 22 25 28 28 27 25 23 23 23 21 22 22 24 24 22 21 20 21 22 22 22 21
2 4 8 8 7 5 3 4 6 4 4 2 2 2 2 2 4 7 5 6 1 4 5 1 5 4 5 5 6 9 6 5 5 2 1 1 1 2 3 4 5 5 4 5 5 7 11 14 15 16 16 16 15 18 21 20 20 21 21 23 23 22 24 29 34 38 39 37 33 29 25 23 21 21 22 22 22 21 21 20 19 19 19 20 21 20
3 5 8 6 6 5 3 3 8 4 2 2 2 3 2 3 1 3 5 6 4 1 2 4 4 3 6 5 6 10 9 7 7 6 6 6 5 4 4 5 6 7 6 6 6 6 10 13 13 14 14 11 11 18 21 19 19 21 22 25 28 30 30 32 38 40 41 39 34 30 25 22 20 19 20 20 20 20 20 19 18 18 18 18 19 19
5 6 4 6 7 7 5 3 7 5 1 3 4 5 3 5 4 5 5 6 5 5 3 7 4 5 5 6 7 8 9 10 11 11 11 10 7 4 4 5 5 7 8 9 9 8 9 12 13 15 16 13 13 19 21 20 21 23 26 29 30 32 32 32 32 31 33 33 29 25 21 17 17 17 19 20 19 20 19 19 19 19 19 18 18 17
7 5 5 7 5 6 5 5 4 7 3 3 4 8 8 7 5 4 3 4 5 6 4 6 4 3 4 7 7 7 7 9 11 12 12 12 11 7 3 5 5 5 5 7 9 10 9 10 13 15 15 14 14 16 17 18 19 21 27 32 30 28 26 22 19 18 25 31 29 25 22 20 20 18 20 21 20 20 19 18 19 19 19 18 17 17
4 4 6 7 6 6 6 5 4 7 6 2 5 8 9 5 4 3 1 4 3 1 2 4 6 3 5 7 8 8 6 8 11 13 13 11 11 10 6 2 3 4 3 4 6 8 7 8 12 14 15 13 11 11 11 12 13 12 19 26 22 18 16 13 12 14 19 26 29 29 28 27 25 21 19 20 20 20 18 18 19 19 19 18 17 17
4 5 5 6 6 6 5 4 6 8 8 3 6 6 8 7 7 5 4 5 2 2 3 4 5 3 4 5 8 8 4 8 13 14 14 13 13 12 10 7 4 2 4 6 6 7 8 10 13 12 12 11 10 13 14 14 14 10 13 17 13 9 11 10 11 14 17 19 22 25 25 23 22 20 18 19 19 19 19 20 20 19 19 18 17 17
4 6 7 7 5 4 5 6 8 9 6 7 6 6 7 7 7 5 5 4 0 2 2 6 4 5 3 5 7 7 6 9 11 12 14 14 13 12 10 9 7 5 2 4 5 6 5 5 4 1 6 8 10 16 19 19 19 15 15 18 11 5 6 7 9 12 15 14 15 18 20 19 19 19 18 19 19 19 19 20 19 18 18 18 17 16
3 6 8 7 5 6 8 7 9 11 6 7 5 6 4 4 5 4 5 4 3 5 2 7 2 5 1 5 6 6 6 8 8 8 10 11 12 12 11 10 9 7 6 5 5 6 7 9 9 9 6 4 5 12 19 21 21 18 18 18 13 4 4 6 7 8 11 11 12 14 16 16 17 18 17 18 18 19 19 19 19 19 19 19 17 16
3 2 5 5 6 7 7 5 9 13 9 3 5 5 5 5 5 4 3 4 4 2 5 7 1 5 1 3 4 4 3 6 6 5 8 10 11 11 10 9 9 8 7 7 8 8 10 14 15 13 10 6 2 4 11 14 13 15 18 15 11 6 4 6 6 6 8 10 10 12 14 16 18 19 18 18 18 19 19 19 19 19 20 19 18 16
5 1 2 3 6 6 4 4 5 9 5 4 4 5 3 2 4 4 4 4 4 2 6 5 4 7 2 2 3 3 4 6 6 6 8 10 10 10 9 9 9 8 8 8 8 8 9 11 14 14 14 11 7 3 2 2 1 6 11 11 9 6 4 6 7 6 6 8 9 12 14 17 19 20 21 21 21 21 20 20 19 19 19 19 18 17
3 3 3 4 4 5 5 3 1 2 3 5 4 5 5 0 2 1 2 1 3 2 4 4 3 6 1 2 3 4 5 6 6 6 8 9 9 9 9 9 9 8 9 8 7 8 7 8 10 12 13 12 9 8 8 7 5 3 5 6 6 5 4 6 8 9 10 10 10 13 16 18 19 20 22 22 22 21 21 21 20 20 20 20 19 18
3 4 4 2 3 4 7 5 3 3 3 5 5 5 5 3 3 1 2 0 2 1 3 5 1 3 1 1 2 2 4 4 5 7 7 8 8 8 9 10 9 9 9 8 8 8 7 8 10 10 10 9 8 7 8 10 10 6 1 3 4 5 7 9 11 12 15 17 16 16 18 19 19 20 21 22 21 20 20 21 21 21 22 22 21 20
2 3 3 3 3 3 7 7 6 7 4 4 4 6 5 5 4 3 3 3 3 2 1 3 2 2 2 1 2 3 1 3 6 7 8 9 8 8 9 10 10 10 9 8 9 9 8 9 10 9 8 8 8 9 10 11 12 11 7 3 2 4 7 11 12 12 14 19 22 21 21 21 20 20 20 22 21 20 20 22 22 22 23 23 22 21
4 4 7 4 2 4 7 5 5 8 4 1 2 6 3 5 6 3 3 5 5 3 3 4 2 1 1 3 2 4 1 3 5 6 8 10 10 9 9 10 10 9 9 8 9 9 10 12 13 13 14 12 10 9 10 11 11 12 11 7 4 6 8 9 11 11 12 16 20 21 22 22 21 20 20 21 20 19 20 22 22 23 23 23 21 20
4 3 7 3 2 4 7 6 4 5 4 1 2 4 3 4 8 5 2 1 3 5 2 2 3 2 1 2 2 3 1 4 5 6 8 9 9 10 9 8 8 8 8 8 8 8 10 14 16 17 18 18 15 11 10 10 9 9 10 9 7 8 11 11 11 12 13 15 18 19 21 23 23 21 21 21 21 20 20 21 22 22 23 22 20 20
4 2 6 1 3 5 3 5 3 1 5 4 2 5 2 3 5 4 2 2 4 4 1 2 2 3 2 1 2 2 5 6 6 7 7 7 8 8 7 7 8 8 8 9 9 9 11 14 16 18 19 21 20 18 16 14 13 11 10 9 10 10 10 12 15 17 17 18 19 20 22 24 24 23 22 22 21 20 21 21 22 22 23 22 20 21
3 0 6 3 3 3 3 6 3 5 2 5 4 4 4 3 1 1 2 2 2 3 0 2 2 1 2 1 2 4 7 7 7 6 6 7 7 7 7 8 8 9 8 9 9 9 10 14 17 18 19 20 21 21 21 20 20 19 18 14 11 15 16 17 19 20 19 20 22 23 24 25 25 24 24 23 22 21 21 21 22 23 24 23 23 24
3 3 4 5 2 1 3 4 3 3 4 4 4 3 2 3 4 2 2 3 4 3 1 2 1 2 3 3 2 4 6 7 7 5 6 7 7 7 7 8 8 8 8 8 8 8 10 13 16 18 19 19 20 22 23 24 23 23 23 20 12 11 16 16 16 18 18 19 21 23 23 24 23 23 22 21 21 22 21 21 23 24 23 24 25 26
2 3 2 5 5 1 1 1 5 6 2 2 3 1 0 2 3 2 1 2 4 5 3 3 1 3 3 2 2 2 5 7 7 6 6 7 7 8 8 8 8 8 8 8 8 8 10 13 15 18 19 20 21 23 24 24 24 24 23 21 17 11 11 11 8 11 15 17 20 22 21 20 20 20 20 20 20 20 20 21 22 23 24 25 26 25
2 2 3 3 4 2 2 5 4 7 6 4 3 2 2 3 4 3 1 1 3 4 4 5 3 3 1 1 1 3 5 6 6 6 7 7 7 8 8 8 9 8 8 9 8 8 10 13 15 16 18 20 21 22 23 23 23 23 23 22 20 17 15 14 10 7 10 14 19 21 20 19 19 19 19 19 19 20 21 22 22 22 24 26 26 25
3 4 3 1 2 1 3 5 2 7 10 8 4 2 1 3 5 5 3 3 3 3 2 3 3 2 0 3 4 5 5 7 8 6 6 6 7 8 8 9 9 8 8 8 8 10 11 13 14 14 16 18 18 19 21 22 22 22 22 23 22 21 18 15 13 11 11 12 15 18 20 20 20 20 20 20 21 22 23 24 23 22 25 27 26 27
2 3 3 0 3 3 4 4 5 7 9 8 4 3 2 0 3 5 5 3 4 3 2 3 2 1 1 4 5 5 7 9 9 7 7 7 6 7 8 9 8 8 9 9 9 10 13 14 14 15 16 17 16 17 18 19 20 22 22 23 23 22 20 16 14 12 12 12 13 16 19 19 19 21 23 23 24 25 25 25 24 24 26 28 28 28
1 1 3 3 1 3 4 3 5 6 5 4 3 4 3 2 4 5 2 4 4 3 3 5 2 2 3 6 6 6 8 10 8 7 8 7 6 7 7 8 8 8 9 10 9 10 12 13 14 15 15 16 16 16 17 16 17 19 20 22 23 22 20 16 14 13 13 12 12 14 18 18 17 19 22 22 21 23 25 25 25 27 29 30 29 29
3 2 3 5 5 3 3 2 1 1 2 3 3 5 6 4 4 4 3 4 3 2 3 4 4 4 5 7 7 6 8 9 7 7 8 7 7 7 7 7 8 8 9 10 10 9 10 11 13 15 15 16 16 16 16 16 16 16 17 19 21 22 21 18 15 14 14 14 13 14 17 18 17 18 21 21 20 19 20 22 25 27 29 30 31 29
5 3 3 5 5 5 5 2 1 2 3 3 4 7 7 4 3 4 4 4 5 4 2 0 6 9 7 6 6 6 7 7 5 6 7 6 6 6 6 7 7 8 8 9 9 9 9 10 12 14 15 16 17 17 17 17 17 17 17 19 22 23 22 19 17 16 14 14 15 15 15 16 18 20 22 23 22 19 20 23 26 26 27 29 32 31
6 4 4 7 7 3 3 5 6 7 7 5 4 7 7 6 6 6 4 2 6 7 1 3 9 11 8 6 7 6 6 6 5 6 6 5 6 6 6 7 8 9 9 9 10 10 10 10 11 14 15 16 17 18 18 18 19 20 20 21 23 25 23 21 19 18 15 12 13 15 15 17 21 22 22 22 21 20 22 26 28 28 26 26 30 32
7 3 3 6 9 8 7 7 9 12 10 9 9 8 9 10 10 8 4 1 2 5 6 9 10 8 6 6 6 5 6 6 6 5 5 6 6 6 7 8 9 9 10 10 11 11 11 10 11 14 15 16 17 18 19 21 22 23 24 24 25 26 25 23 21 19 17 14 12 14 15 17 21 22 20 21 21 20 24 27 27 29 27 23 24 29
5 3 2 6 9 9 8 6 7 11 11 10 12 11 10 11 12 11 7 4 5 5 8 13 12 8 5 5 6 6 5 5 5 6 6 7 6 6 7 8 8 8 9 10 10 11 11 11 13 15 16 17 19 20 20 22 23 24 26 27 27 27 27 25 23 22 20 18 14 11 13 16 19 20 21 22 22 22 24 27 27 27 28 26 23 25
4 2 1 3 6 6 7 6 7 11 12 12 11 10 9 9 10 9 7 6 8 8 9 13 11 6 3 4 6 6 4 4 5 7 7 6 6 6 7 7 7 8 9 10 10 10 10 12 14 16 17 19 21 22 22 22 24 25 27 28 28 28 27 27 26 25 23 22 18 12 8 13 17 18 20 23 23 24 25 27 29 27 29 31 27 25
4 4 1 3 5 2 2 4 7 9 12 12 10 9 9 7 6 5 4 4 4 7 12 11 6 4 4 5 6 5 5 6 7 7 6 5 5 6 7 7 7 8 9 9 10 10 10 11 14 16 17 19 21 22 22 22 23 25 26 28 28 28 28 28 28 27 27 25 22 16 8 9 15 18 20 22 24 26 25 26 29 28 28 31 28 26
4 6 3 2 4 1 3 1 3 5 7 6 5 6 5 3 5 5 5 6 4 4 8 6 4 5 6 5 5 5 6 6 6 6 5 5 5 6 7 7 7 8 8 8 9 10 10 11 14 16 18 20 20 21 21 21 22 23 24 24 26 28 30 29 29 29 28 28 25 20 13 5 11 18 21 21 23 27 27 27 28 28 28 29 27 27
4 7 4 2 4 4 4 2 4 3 2 1 3 4 2 3 7 8 6 6 6 4 5 6 6 7 6 5 5 5 5 6 6 6 6 5 5 5 6 7 7 7 8 8 8 10 11 13 15 17 19 21 21 21 21 22 23 22 22 23 26 29 30 29 30 30 29 29 28 24 18 10 3 12 18 21 23 25 27 28 26 25 26 27 25 27
5 5 4 2 3 4 1 3 2 2 2 0 2 4 6 8 11 13 10 8 8 8 9 9 8 7 7 7 6 6 6 6 7 7 7 6 5 4 5 6 7 7 7 7 8 10 13 15 16 18 19 20 21 22 23 23 23 22 23 24 27 29 29 29 29 31 31 30 30 27 22 16 9 1 10 18 23 25 26 27 25 24 26 28 26 28
6 4 3 3 2 3 2 2 1 2 1 2 2 3 5 5 6 8 9 8 7 6 7 8 8 8 8 8 6 6 5 5 6 7 7 7 6 5 5 5 6 6 6 7 8 10 13 15 16 17 18 19 21 23 23 22 22 22 23 25 27 29 29 30 31 32 33 33 31 28 26 21 15 10 6 11 20 23 24 24 24 23 25 26 25 26
6 5 3 3 1 2 3 2 2 2 1 1 1 0 1 1 1 1 4 4 3 3 6 8 9 8 8 7 6 5 4 3 4 6 7 7 7 6 7 7 7 7 8 9 10 11 14 15 16 16 18 20 22 22 22 22 22 23 24 25 27 28 29 31 32 31 32 32 30 28 26 24 20 16 14 12 15 20 22 23 24 23 23 24 24 24
5 4 4 3 1 2 4 3 2 2 2 2 2 1 1 1 3 2 3 2 2 3 6 9 9 9 8 6 6 5 2 1 3 4 5 6 6 6 7 8 10 10 11 12 13 15 16 16 16 18 20 22 23 22 21 21 22 24 25 25 25 27 29 31 30 29 29 29 29 27 25 25 23 21 19 17 16 18 23 25 24 23 24 25 26 25
7 4 4 5 2 2 4 3 2 2 2 2 2 2 3 3 2 1 2 2 1 2 5 8 9 9 8 7 6 4 1 1 1 1 3 4 4 5 5 7 11 12 13 14 15 15 16 17 18 21 23 24 24 22 21 21 23 25 25 24 24 26 28 29 27 26 26 26 26 26 25 25 24 22 21 20 18 18 23 28 28 26 26 27 27 27
6 4 4 4 3 3 3 2 1 1 1 1 0 2 3 3 1 1 1 1 2 2 4 7 8 7 7 7 5 2 1 0 2 2 2 2 4 6 6 7 10 11 13 15 16 16 17 19 20 22 24 24 23 22 22 22 23 24 23 23 26 27 27 26 23 22 23 25 25 25 25 25 24 22 21 21 21 21 24 28 29 29 29 28 28 28
4 3 3 3 4 3 3 3 1 1 0 0 2 3 3 2 1 2 1 2 3 4 4 5 5 4 4 5 4 2 2 3 4 4 3 3 4 6 8 9 10 11 13 15 15 16 18 19 20 21 21 22 22 23 23 23 24 24 23 24 26 26 23 21 20 21 23 24 25 25 24 23 23 21 21 22 24 25 26 27 27 28 31 31 29 28
2 2 2 2 3 3 3 3 2 0 0 1 2 3 2 1 2 2 1 3 6 6 6 6 6 5 5 6 5 5 5 6 6 5 4 4 5 6 9 11 12 13 14 15 16 18 18 19 21 21 21 21 22 22 23 24 24 24 24 26 26 24 21 20 19 20 21 22 24 24 23 22 21 21 21 22 24 26 26 26 26 27 29 30 29 28
1 2 2 1 2 3 3 2 2 2 0 1 2 2 1 0 2 3 4 6 7 8 7 7 6 7 8 9 8 7 7 7 6 5 5 5 5 7 10 12 12 13 14 16 17 18 18 19 19 20 20 21 21 22 23 23 23 24 26 27 25 22 22 23 21 19 20 22 22 22 22 21 20 20 20 20 22 24 24 23 23 24 25 27 28 28
0 1 2 1 1 2 3 2 2 1 1 1 1 1 2 3 4 6 6 6 6 6 6 6 6 7 9 10 9 8 7 7 5 4 4 4 5 8 10 11 12 14 15 17 18 19 19 19 19 20 20 20 20 20 21 21 22 22 24 26 25 24 23 24 24 23 23 22 21 21 21 21 20 19 18 18 20 22 23 23 23 23 23 25 27 27
1 2 3 2 2 3 3 2 2 2 3 3 4 5 6 7 6 7 8 7 6 5 5 6 7 7 8 10 10 8 6 6 5 4 4 4 5 6 8 9 10 12 13 14 15 16 17 17 18 19 20 20 20 20 20 20 20 21 21 22 23 25 26 25 25 25 25 24 22 21 21 20 20 20 18 17 18 20 21 21 23 24 24 25 26 26
2 3 4 4 5 5 6 5 4 4 6 8 8 7 8 8 6 7 8 7 5 5 5 6 7 7 7 8 9 7 6 6 5 4 3 3 3 4 4 5 6 7 9 11 12 13 14 15 16 17 18 19 20 20 20 19 18 19 20 19 20 22 25 27 26 25 24 24 24 22 21 21 22 21 20 19 18 19 19 20 22 23 24 24 25 23
1 2 4 4 4 3 4 4 5 6 8 9 9 8 9 8 7 6 7 7 6 7 7 7 7 7 7 8 8 8 7 6 5 4 2 2 3 3 4 4 4 6 8 9 9 10 11 12 14 15 15 16 18 20 21 20 18 17 18 19 19 18 20 24 27 26 24 23 23 23 22 23 22 22 22 21 20 19 19 18 19 21 22 22 22 21
1 3 4 5 3 3 5 7 7 8 8 8 8 7 7 8 8 7 7 8 8 8 9 9 8 7 7 7 7 6 6 5 4 4 3 3 4 5 5 5 5 6 6 6 6 7 8 9 10 11 12 13 15 16 18 19 19 18 17 17 18 18 18 21 24 26 25 24 23 22 22 22 22 22 22 22 22 21 21 19 19 19 18 18 18 19
2 3 3 5 6 6 7 8 9 9 9 8 8 8 7 8 10 10 9 9 9 9 9 9 9 8 8 8 7 7 5 4 5 5 4 3 4 5 4 4 5 5 6 6 6 6 7 8 9 9 10 11 12 13 13 15 17 19 18 16 14 15 17 19 20 22 23 23 23 23 21 20 20 21 22 22 22 23 22 20 19 18 16 15 15 16
3 4 5 7 7 4 4 6 6 6 6 6 7 9 8 8 10 10 9 8 8 8 8 7 8 8 9 10 10 9 6 4 6 7 6 4 5 4 3 3 4 4 5 6 6 6 7 8 8 8 10 11 11 11 11 11 13 15 16 15 14 14 15 16 17 18 19 19 20 20 19 18 17 17 18 19 21 22 23 22 19 18 17 15 14 13
3 5 5 5 5 5 7 6 5 5 6 7 8 9 8 7 9 10 9 8 7 8 9 8 7 7 7 8 11 12 9 7 8 9 7 4 4 4 3 3 3 4 5 5 6 6 7 7 7 7 8 9 10 11 11 12 13 13 11 11 12 14 14 14 13 13 13 14 15 15 15 15 14 14 14 15 17 20 23 23 22 20 18 16 15 14
Wind_Direction
139 150 169 182 196 197 195 184 170 164 137 137 99 76 274 295 290 281 280 278 230 202 254 221 215 249 269 292 283 273 278 235 229 211 175 168 163 177 166 168 182 183 148 122 143 162 169 173 176 180 187 194 202 204 199 196 196 198 202 203 206 205 194 185 193 203 203 202 207 211 212 215 219 223 222 218 219 220 218 216 212 210 209 212 211 208
115 168 211 210 198 187 194 187 153 123 102 96 87 348 307 277 271 274 267 290 258 172 260 226 190 248 281 303 320 2 355 248 233 226 213 190 181 186 165 155 130 79 67 107 136 165 179 184 181 179 183 189 198 204 204 202 199 199 202 206 208 199 175 176 194 208 207 204 205 207 211 216 215 218 222 220 220 220 219 218 215 211 211 212 210 207
122 207 229 216 191 169 177 143 120 120 124 117 117 104 299 261 281 290 274 296 349 166 255 156 159 253 331 336 350 13 0 299 281 275 329 327 118 59 81 95 81 80 90 111 145 176 185 188 179 178 184 188 197 207 209 206 203 205 207 207 206 195 186 194 202 204 202 201 204 208 212 215 212 214 221 224 223 221 222 223 218 214 213 212 209 207
162 241 233 193 149 152 211 133 109 104 118 150 167 133 248 255 269 290 285 309 344 114 197 128 140 313 356 14 16 7 353 348 359 30 34 30 55 71 102 116 119 126 127 141 169 183 185 183 176 184 191 186 197 207 208 207 206 207 206 208 210 205 202 209 211 206 200 197 198 203 208 213 213 214 220 223 224 223 224 222 217 215 213 213 213 209
214 243 196 137 139 165 209 196 124 130 239 253 205 150 188 245 215 222 274 319 345 6 65 95 59 341 2 26 16 354 350 2 13 26 22 14 27 65 105 100 125 151 152 160 171 178 183 179 179 194 195 187 198 206 206 209 209 206 206 211 216 213 210 215 217 208 196 190 187 190 197 206 208 209 214 216 217 219 218 215 213 213 213 216 217 212
239 238 121 118 155 171 195 223 165 157 183 292 233 176 191 228 227 228 302 4 29 9 17 84 73 299 331 22 13 350 357 4 13 25 20 10 9 14 68 105 135 159 160 160 164 170 174 168 177 197 200 194 202 207 206 209 210 207 209 214 218 217 217 221 222 211 194 187 184 186 194 199 197 197 203 208 211 211 207 209 213 213 213 215 215 213
233 187 139 143 166 169 192 230 213 161 139 281 236 181 183 188 158 180 41 55 76 338 334 82 117 229 324 12 0 346 358 7 16 23 20 19 18 18 21 46 125 134 128 116 128 150 153 153 176 196 196 192 195 195 197 201 207 218 222 224 228 229 229 228 224 215 199 192 191 194 199 201 197 194 197 206 214 212 207 212 217 214 212 213 213 212
183 161 161 161 157 167 195 227 214 159 129 234 237 148 154 158 148 168 112 89 178 226 327 11 100 116 337 338 336 337 356 21 22 18 15 20 24 29 27 14 17 74 136 130 130 144 150 167 191 200 184 182 187 180 180 186 193 209 229 241 264 263 234 229 224 213 203 203 205 200 196 198 199 195 196 205 216 218 213 213 215 216 215 213 213 212
171 161 181 176 159 176 204 204 185 152 140 242 230 133 152 164 151 155 107 91 36 76 327 319 54 90 320 301 325 347 15 22 18 13 13 18 21 29 33 29 22 12 78 122 133 139 133 157 198 181 142 169 192 188 189 190 190 191 203 223 246 266 243 247 246 224 210 217 223 207 195 196 199 198 200 205 213 218 216 214 215 217 217 215 213 212
202 185 180 163 161 201 217 197 161 156 186 243 198 114 82 78 95 99 97 101 43 60 231 273 26 101 289 311 337 1 16 4 0 10 16 16 17 26 32 36 38 30 34 40 46 57 45 40 37 42 82 140 185 194 200 200 195 186 185 203 217 238 284 274 270 251 232 238 238 215 202 198 198 199 200 199 205 212 213 214 216 217 218 216 215 213
281 221 161 153 182 206 211 183 162 177 188 176 142 111 59 42 47 49 66 92 72 29 253 258 67 100 123 311 339 8 28 357 345 0 19 18 15 21 30 37 43 42 41 40 38 41 39 42 48 50 52 50 60 196 212 215 202 179 172 183 197 216 260 261 269 267 251 255 248 223 210 207 204 203 201 197 199 205 208 211 215 217 217 218 218 217
329 348 186 218 212 192 169 158 175 192 174 101 121 122 104 11 24 30 1 51 98 251 262 256 82 83 102 246 310 351 34 25 4 359 15 24 18 16 28 36 41 43 41 43 44 43 40 41 45 46 45 45 38 17 316 278 228 151 155 162 173 192 223 237 246 252 256 261 249 232 222 215 211 210 208 205 203 205 207 210 213 214 216 218 217 215
323 236 260 292 233 173 141 149 165 146 102 104 115 98 110 43 31 42 307 60 160 230 239 224 94 74 79 239 292 342 31 35 24 18 20 28 23 19 26 30 35 40 38 39 41 41 41 40 42 39 37 38 30 11 6 6 11 60 123 144 158 170 185 213 229 234 241 244 239 232 227 223 220 217 216 214 212 212 211 209 210 212 214 214 211 209
316 288 305 321 261 181 144 150 156 151 142 149 149 121 128 118 90 210 268 138 210 231 216 232 114 97 159 196 290 343 56 56 46 44 39 39 31 26 30 33 35 36 35 35 33 35 36 34 38 36 27 22 10 352 351 348 342 347 38 162 173 173 186 205 216 223 225 225 225 224 224 226 225 222 222 221 220 219 214 209 208 210 211 208 206 205
165 289 264 196 237 193 165 174 168 154 149 169 160 128 140 148 136 195 204 162 196 198 277 307 56 131 183 116 325 311 51 85 68 55 50 49 40 34 38 38 39 35 33 34 30 30 29 26 28 26 21 10 350 338 337 333 320 312 310 295 212 188 204 212 211 214 217 217 219 220 222 225 224 223 225 225 224 222 215 209 209 210 208 205 204 204
147 230 254 236 228 176 173 188 147 124 116 233 139 101 137 177 141 133 179 171 173 138 6 351 80 118 162 102 343 301 307 85 76 58 52 50 42 39 39 36 36 35 33 33 31 26 23 28 30 24 20 18 10 352 343 340 317 291 288 289 248 207 204 203 204 213 220 216 216 220 223 224 225 224 223 223 223 221 216 211 210 210 207 203 204 202
126 251 278 287 262 205 179 181 157 140 157 171 117 141 197 171 123 114 198 191 105 109 17 326 125 102 106 106 324 281 136 80 63 51 49 50 48 46 40 33 30 30 30 29 30 27 23 29 30 27 24 22 23 20 8 358 337 299 281 266 238 209 198 199 208 218 225 217 209 216 224 225 225 224 222 221 220 218 218 215 212 210 206 204 206 202
140 262 287 248 233 254 178 132 75 73 138 122 167 187 157 76 91 107 140 12 48 108 263 329 106 130 152 185 270 179 128 96 78 60 47 41 47 49 42 34 27 23 24 22 24 24 22 24 23 22 23 21 21 22 18 11 360 344 319 284 261 253 242 234 227 219 220 219 211 212 221 224 225 225 225 223 218 216 215 213 211 207 204 204 204 199
121 7 292 265 217 267 37 79 55 344 46 123 166 165 110 111 155 94 123 122 90 130 166 9 22 169 167 217 233 151 129 112 97 75 54 41 42 44 34 29 25 22 19 17 20 18 16 18 17 16 16 17 18 18 17 15 12 8 2 345 300 271 267 262 247 229 223 224 221 219 221 224 225 225 226 222 216 215 212 207 205 203 203 203 201 196
115 102 284 285 260 243 25 63 159 281 355 79 92 45 60 135 158 158 139 144 143 148 146 86 2 284 207 231 251 153 140 124 107 89 66 49 43 41 34 26 21 20 18 14 16 15 13 15 15 14 14 13 14 16 16 16 15 13 12 9 348 285 273 275 261 238 230 231 231 228 223 223 224 222 222 219 215 214 211 205 202 202 202 202 199 195
100 106 231 292 325 78 133 225 187 187 172 105 98 80 312 87 112 151 113 96 128 138 141 130 196 270 234 242 274 153 139 118 109 104 81 60 47 41 35 29 22 17 17 14 11 11 12 13 13 14 16 14 14 15 15 14 15 15 12 11 7 344 321 321 296 243 233 236 239 237 229 224 222 219 219 219 216 214 209 204 203 204 203 199 197 195
152 138 176 287 352 54 257 283 214 167 141 126 128 153 174 135 119 123 120 338 86 120 154 149 172 250 263 48 49 104 108 90 86 94 86 67 52 44 34 29 25 19 17 14 9 9 10 11 10 11 15 16 14 13 12 12 13 13 10 6 4 3 2 359 348 301 264 250 241 236 233 229 222 217 217 219 220 213 204 201 203 205 200 197 197 196
140 112 123 263 329 217 273 317 53 115 102 93 82 50 85 127 121 124 176 222 73 87 132 109 117 232 64 82 80 77 78 68 57 65 81 70 53 44 33 26 23 18 15 12 10 12 13 11 9 11 15 16 13 11 10 9 10 10 9 6 3 1 1 358 351 338 316 289 261 241 233 228 221 216 212 213 217 214 204 200 200 200 199 199 199 196
101 98 102 233 315 317 299 331 26 60 78 78 46 24 43 82 135 138 168 171 120 125 120 80 84 227 138 102 89 71 68 66 52 44 60 62 46 33 27 23 19 12 9 10 12 13 13 13 13 14 15 13 11 10 9 7 6 7 7 6 3 359 355 350 340 328 314 299 282 261 245 232 222 220 214 208 212 214 208 202 198 198 201 201 197 194
131 121 100 108 47 348 321 332 6 13 39 69 30 348 348 22 104 127 121 82 109 175 146 119 142 197 135 110 91 77 73 67 54 45 52 51 39 27 20 17 15 10 8 9 11 11 11 12 12 12 12 10 7 7 6 4 2 3 3 2 0 356 352 346 331 314 301 287 276 268 260 248 233 228 225 216 215 218 211 204 200 199 200 199 195 193
107 103 106 131 151 177 194 207 228 332 25 47 21 356 359 24 80 125 121 88 125 184 114 118 145 135 120 109 92 83 80 72 55 49 49 44 36 26 17 16 13 8 8 8 7 7 10 10 9 9 9 7 5 3 2 0 0 1 360 0 1 357 352 344 330 316 301 285 273 266 263 256 240 234 237 230 221 222 215 205 202 198 196 197 194 191
99 75 68 112 135 180 187 195 202 131 78 37 357 359 9 10 31 98 119 142 164 143 49 187 153 136 131 124 108 91 84 78 56 44 44 38 30 21 16 18 15 10 7 6 5 4 7 7 6 6 6 5 4 2 0 359 2 3 0 1 3 3 358 350 339 328 311 291 280 272 265 258 244 236 237 229 218 218 215 208 204 197 194 196 194 191
101 61 23 72 77 75 103 78 62 77 78 66 36 12 19 36 53 76 96 155 147 125 72 220 152 136 136 130 118 110 99 88 66 48 43 35 25 18 16 17 17 13 7 5 5 2 3 2 359 0 2 1 1 1 1 2 4 6 5 4 4 7 5 358 350 344 332 311 288 274 265 257 250 244 237 224 214 213 211 206 199 192 193 197 193 191
105 64 9 76 68 44 47 64 78 87 82 67 59 42 33 47 63 73 63 359 123 137 166 161 138 122 117 113 108 108 104 97 86 72 58 46 31 20 21 22 19 12 5 5 4 1 1 0 356 356 357 358 360 1 3 5 5 6 7 6 6 8 7 1 358 357 351 342 314 281 265 257 255 254 242 225 214 208 203 201 194 187 191 199 198 192
97 64 23 88 76 42 23 29 75 92 88 64 52 47 45 54 65 68 64 56 65 89 127 127 113 94 86 96 94 90 91 97 96 79 61 51 38 26 28 30 22 12 8 6 3 1 1 359 358 357 356 358 360 1 4 5 4 4 6 7 6 7 8 6 4 4 2 359 348 310 270 257 256 254 241 224 215 204 196 196 192 186 189 197 203 197
80 124 225 73 73 33 12 35 70 85 87 69 43 31 36 49 56 54 55 64 67 77 98 104 102 94 83 87 86 78 71 77 77 68 59 49 40 36 37 32 24 17 13 7 3 3 1 359 360 360 358 358 358 360 2 3 3 5 6 6 6 6 9 10 9 7 8 7 5 352 295 257 250 247 233 217 207 197 191 192 191 186 187 193 201 199
79 119 103 64 82 16 341 77 80 76 78 66 35 15 18 33 54 53 40 41 76 119 118 110 109 119 118 106 91 72 65 65 62 62 60 49 42 45 42 35 28 22 16 10 5 3 360 359 1 1 360 358 357 359 1 2 4 7 6 5 6 8 12 14 12 10 12 13 12 11 346 262 239 237 229 211 197 190 187 188 188 185 185 190 195 194
108 126 135 106 99 140 237 198 41 44 65 56 6 348 355 26 75 70 41 24 26 115 127 123 127 127 125 121 102 79 70 67 59 57 55 45 43 46 45 39 32 25 20 14 8 4 2 359 357 360 1 360 359 359 2 6 7 7 7 8 10 14 16 17 15 14 15 17 16 15 8 313 232 228 225 208 191 187 187 185 184 182 182 187 190 186
106 122 137 131 107 151 220 316 20 47 90 16 322 332 355 83 82 75 58 37 35 63 99 100 104 114 119 119 113 100 83 69 64 60 53 47 42 40 42 41 35 29 24 16 9 4 3 0 358 2 5 4 3 4 9 14 13 11 12 14 16 19 19 18 18 17 17 19 19 19 15 6 285 222 214 200 185 182 182 179 178 176 177 181 182 177
105 103 109 90 97 134 151 20 53 176 202 100 48 66 92 98 91 84 70 50 53 74 94 98 102 110 108 105 107 103 91 81 72 62 52 45 40 36 40 39 35 32 26 17 11 5 4 4 1 2 6 8 9 12 17 18 16 14 15 19 22 22 20 20 21 20 18 20 22 23 21 19 21 116 196 188 178 173 172 171 170 169 171 172 171 169
120 109 98 76 76 118 94 49 139 173 134 94 84 83 95 94 89 80 61 42 46 70 96 106 107 110 111 113 114 110 114 109 78 60 46 38 35 35 36 34 29 28 21 14 12 8 7 9 6 4 8 14 16 17 19 19 19 19 18 22 26 24 21 22 23 22 21 21 22 25 29 31 34 48 91 156 163 159 158 159 159 160 163 161 158 157
116 119 104 70 54 121 110 84 102 114 138 196 215 187 97 58 281 61 67 48 35 69 110 120 119 123 125 127 133 141 154 134 68 47 35 31 31 30 33 33 26 23 22 19 19 21 21 21 19 15 19 25 24 21 20 21 25 26 22 23 27 26 24 24 22 22 24 23 22 26 34 40 43 50 65 92 125 135 139 141 143 147 151 148 141 138
81 112 129 114 76 108 109 108 121 144 203 190 174 246 334 323 263 240 105 90 26 86 129 133 133 140 144 144 159 181 198 47 39 27 24 24 19 18 29 32 27 25 25 24 25 28 28 27 26 26 30 32 27 23 23 25 30 32 26 23 25 26 27 25 20 20 27 29 27 29 38 46 48 52 62 70 86 109 122 127 128 132 136 133 128 124
56 61 93 98 98 121 120 125 146 180 206 153 155 272 339 352 282 265 95 120 207 141 147 146 143 153 160 160 172 193 243 23 69 33 22 16 9 13 27 33 30 27 27 30 31 30 28 30 33 34 36 33 26 23 25 28 34 36 29 24 25 27 29 26 18 17 27 34 35 35 40 50 54 56 63 69 74 89 108 116 120 124 126 122 119 117
43 31 54 93 121 122 107 107 115 133 175 129 164 296 333 342 302 188 136 188 174 134 147 152 154 164 169 166 168 176 355 44 156 127 53 27 29 32 34 37 33 27 28 33 35 36 36 36 35 34 34 30 25 24 26 30 36 36 31 29 30 28 27 27 22 22 31 40 43 40 42 50 58 62 69 77 81 84 94 106 115 121 122 118 113 111
36 29 62 109 115 93 88 105 103 31 309 268 298 297 305 313 225 185 207 172 121 93 90 114 122 131 148 154 151 114 47 70 110 111 73 42 41 38 36 41 43 39 37 36 35 37 40 39 37 35 34 33 32 31 29 32 35 33 30 33 33 28 26 29 32 34 38 45 48 46 43 48 56 63 71 84 93 93 93 97 103 110 115 115 110 103
62 43 47 84 111 111 97 98 99 59 336 309 302 301 303 211 191 191 139 107 105 93 82 83 86 91 100 102 103 103 89 81 87 86 62 46 42 34 32 38 41 39 39 41 40 40 41 41 39 37 35 35 36 34 33 35 34 32 31 31 30 29 31 35 38 39 41 47 52 52 49 49 55 61 70 84 97 100 99 100 102 103 107 110 110 104
115 97 75 78 122 117 90 83 125 164 204 289 275 290 337 132 162 134 102 96 102 102 96 89 87 95 102 101 100 102 97 86 80 75 65 53 49 49 46 43 39 36 37 39 40 41 43 42 39 37 36 37 37 35 37 37 35 34 34 30 28 33 39 41 40 40 41 45 51 54 54 54 56 60 66 76 90 99 102 106 108 106 104 106 107 106
342 126 146 193 234 121 129 145 152 134 355 305 209 150 85 98 121 120 112 103 99 103 104 99 96 103 110 110 109 106 103 99 94 85 75 63 60 63 62 56 50 47 45 43 42 43 43 41 38 37 38 38 37 36 36 35 34 34 35 33 32 36 41 42 42 43 43 44 48 53 56 59 61 64 66 70 80 91 98 103 106 105 104 103 102 99
30 100 111 94 61 82 105 120 117 89 54 64 91 98 92 91 97 107 111 108 105 107 109 109 109 109 112 116 116 114 112 110 106 100 92 82 76 73 69 65 59 52 47 44 44 45 44 41 39 39 40 39 37 36 34 33 34 34 34 35 37 39 41 41 42 44 44 45 48 52 56 61 65 69 72 74 80 85 90 97 101 101 101 101 100 98
130 111 94 95 107 93 68 66 83 81 72 75 78 82 88 90 93 103 104 103 106 110 109 114 120 122 122 120 117 115 120 123 119 119 120 105 92 89 85 75 62 51 46 45 46 46 46 44 39 37 39 39 37 36 34 32 33 34 35 38 40 40 41 42 42 42 43 46 49 53 56 59 62 67 73 77 83 88 91 95 100 102 103 104 101 98
311 76 82 104 136 124 79 82 89 82 86 89 84 80 84 85 85 92 100 107 112 111 112 116 120 120 119 117 118 122 130 135 131 129 134 125 111 104 97 82 62 55 53 52 51 46 41 38 34 32 35 37 35 34 35 34 33 33 36 40 41 39 40 42 42 41 41 42 46 51 57 59 59 63 69 73 77 85 92 98 104 107 108 107 104 100
68 82 89 92 93 87 100 115 106 90 89 92 91 93 96 94 93 91 93 103 107 105 108 112 114 115 113 111 117 123 122 123 127 128 125 114 106 97 88 79 67 61 59 56 52 44 38 37 35 34 33 31 26 24 29 34 34 32 31 34 36 38 42 44 45 45 43 41 41 45 54 61 63 63 66 69 73 77 81 89 100 109 110 110 109 108
113 89 104 108 99 89 100 118 114 96 86 84 91 99 101 103 105 101 96 100 104 103 102 102 105 114 121 123 123 119 113 116 124 125 122 117 114 108 97 84 68 59 58 54 46 43 42 42 40 37 34 29 21 17 23 34 38 35 33 30 30 37 44 46 48 49 46 43 41 41 45 55 64 69 70 71 73 74 74 77 88 100 108 113 116 115
90 103 123 123 120 124 139 142 130 110 103 106 107 104 102 105 109 107 105 105 105 109 110 101 96 103 115 128 132 124 116 125 131 131 134 136 134 130 116 99 79 58 48 43 38 37 34 31 32 37 39 39 34 27 24 25 25 28 34 38 39 44 48 46 46 49 49 46 44 42 40 43 53 66 73 75 78 79 80 78 79 86 96 105 110 112
126 147 157 140 129 140 148 144 127 111 116 122 116 108 108 112 110 110 116 119 120 126 126 118 111 104 103 123 136 134 132 140 142 137 132 124 124 126 118 106 82 55 42 34 30 25 20 18 18 19 23 31 37 36 32 26 21 25 40 49 45 42 42 40 38 42 49 51 50 47 43 39 40 51 65 75 82 85 87 88 84 82 87 97 103 104